sat.trackr.live / text

‹ back to catalog

STARLINK-31252

NORAD 59083 · 2024-041K

PAYLOAD ACTIVE UNKNOWN

§ Identity

Operator
Country
US
Launch date
2024-02-29
Launch site
AFETR
Launch vehicle
Mass (kg)
RCS (m²)

Purposes: comms

External: N2YO · Heavens-Above · Gunter

§ Orbital elements

Epoch: 2026-05-25T01:15:55.484064Z

Period
94.27 min
Inclination
42.9999°
Eccentricity
0.0001122
Mean motion
15.27577014 rev/d
Perigee alt
482.3 km
Apogee alt
483.8 km
Semi-major
6,861.2 km
B*
3.3032e-5
RAAN
156.2572°
Arg perigee
273.2087°
Mean anomaly
86.8636°
Rev number
12,695

§ Raw data

STARLINK-312521 59083U 24041K   26145.05272551  .00000647  00000+0  33032-4 0  99922 59083  42.9999 156.2572 0001122 273.2087  86.8636 15.27577014126951

JSON: /api/v1/satellites/59083 · /tle

For live sub-satellite position, see the globe view (requires WebGL).

§ Visibility from observer

Set your observer location to see the next 7 days of passes ≥ 10°. The values pass through the URL so the page stays shareable.

No JS? Fill the form by hand. The geolocation button needs JavaScript.